Notices

What's New in latest Release from April 7th, 2021:

- Updated Glossary, including Speed of Maximum Gust, and Total Hourly Precipitation

- Updated national and regional climate services offices contacts and prices information

- Addition of station inventory lists for 1981-2010, 1971-2000, and 1961-1990 Normals.

If you haven't already, please take our survey and provide feedback about our website: https://eccc.sondage-survey.ca/f/LanguageSelection.aspx?s=442ca660-fcf1-47c0-95a9-59707d6fd709

Hourly Data Report for February 27, 2003

TORONTO CITY
ONTARIO

43°40'00.000" N
79°24'00.000" W
112.50 m
6158355
71508
XTO

Download Data

Hourly Data (February 2003)
Hourly Data Report for February 27, 2003
TIME
LST
Temp Definition
°C
Dew Point Definition
°C
Rel Hum Definition
%
Precip. Amount Definition
mm

Wind Dir Definition
10's deg

Wind Spd Definition
km/h
Visibility Definition
km
Stn Press Definition
kPa
Hmdx Definition


Wind Chill Definition


Weather Definition


00:00 -8.5 -12.4 73   LegendMM LegendMM LegendMM 100.90     LegendNANA
01:00 -9.1 -12.5 76   LegendMM LegendMM LegendMM 100.86     LegendNANA
02:00 -8.8 -12.0 78   LegendMM LegendMM LegendMM 100.84     LegendNANA
03:00 -9.2 -12.6 76   LegendMM LegendMM LegendMM 100.80     LegendNANA
04:00 -9.3 -13.2 73   LegendMM LegendMM LegendMM 100.79     LegendNANA
05:00 -9.2 -13.2 73   LegendMM LegendMM LegendMM 100.84     LegendNANA
06:00 -8.7 -12.6 73   LegendMM LegendMM LegendMM 100.86     LegendNANA
07:00 -8.8 -12.0 78   LegendMM LegendMM LegendMM 100.88     LegendNANA
08:00 -7.5 -11.3 74   LegendMM LegendMM LegendMM 100.88     LegendNANA
09:00 -6.2 -9.8 76   LegendMM LegendMM LegendMM 100.89     LegendNANA
10:00 -4.8 -8.5 75   LegendMM LegendMM LegendMM 100.83     LegendNANA
11:00 -4.2 -7.9 75   LegendMM LegendMM LegendMM 100.84     LegendNANA
12:00 -4.4 -8.2 75   LegendMM LegendMM LegendMM 100.81     LegendNANA
13:00 -3.6 -7.6 74   LegendMM LegendMM LegendMM 100.73     LegendNANA
14:00 -2.8 -8.4 65   LegendMM LegendMM LegendMM 100.65     LegendNANA
15:00 -3.0 -8.2 67   LegendMM LegendMM LegendMM 100.61     LegendNANA
16:00 -2.8 -8.4 65   LegendMM LegendMM LegendMM 100.62     LegendNANA
17:00 -3.2 -8.0 69   LegendMM LegendMM LegendMM 100.59     LegendNANA
18:00 -3.5 -7.2 75   LegendMM LegendMM LegendMM 100.58     LegendNANA
19:00 -3.6 -6.6 80   LegendMM LegendMM LegendMM 100.58     LegendNANA
20:00 -3.8 -6.3 83   LegendMM LegendMM LegendMM 100.56     LegendNANA
21:00 -4.2 -6.4 85   LegendMM LegendMM LegendMM 100.55     LegendNANA
22:00 -3.8 -6.0 85   LegendMM LegendMM LegendMM 100.57     LegendNANA
23:00 -4.5 -6.6 85   LegendMM LegendMM LegendMM 100.53     LegendNANA

Notes on Data Quality.

Legend

  • E = Estimated
  • M = Missing
  • NA = Not Available*
  • [empty] = Indicates an unobserved value
Date modified: